Lid_Strength_Index
-0 -0 -0 -0 -0 -0 -0 -0 -1 -1 -1 -1 -1 -1 -1 -1 -0 3 6 4 3 -1 0 7 7 8 7 8 8 10 13 14 13 13 11 11 10 10 9 9 9 8 8 7 4
-0 -0 -0 -0 -0 -0 -0 -0 -0 -0 -1 -1 -1 -1 -1 -1 4 6 1 -2 -2 -1 7 8 9 8 9 9 10 12 13 13 12 12 11 10 10 10 10 10 9 9 8 6 5
-0 -0 -0 0 0 -0 -0 -0 -0 -0 -1 -1 -1 -1 -1 1 7 7 -1 -2 -2 2 6 7 8 8 10 9 10 12 13 12 11 11 10 10 11 10 10 11 10 9 9 7 5
-0 -0 0 0 0 -0 -0 -0 -0 -0 -0 -0 -1 -1 -1 5 13 6 -1 -1 -1 5 6 8 8 10 11 11 10 12 12 12 10 9 10 11 10 11 11 9 9 9 8 7 5
-1 -0 0 0 0 0 -0 -0 -0 -0 -0 -0 -1 -1 4 10 9 4 -0 1 5 7 8 8 9 10 11 11 10 12 11 11 10 10 11 10 11 11 11 10 9 10 9 8 5
-0 -0 -0 0 0 -0 -0 -0 -0 -0 -0 -0 -1 -0 7 12 5 4 5 6 7 8 8 8 9 9 10 11 12 11 10 11 10 10 10 11 12 11 10 10 10 10 10 9 7
-0 0 0 -0 0 -0 -0 -0 -0 -0 -0 -0 -1 3 9 10 4 5 6 7 7 7 8 8 8 9 10 11 10 11 12 11 11 11 11 11 11 11 10 10 10 10 10 10 9
1 0 0 0 0 0 -0 -0 -0 -0 -0 -1 -1 6 11 6 5 6 6 7 7 7 7 7 7 8 9 10 11 12 13 14 12 11 11 11 13 11 11 11 10 11 11 11 10
1 1 1 0 0 0 -0 -0 -0 -0 -1 -1 5 8 12 3 6 5 7 7 7 7 7 7 8 10 10 13 14 14 16 15 13 11 12 12 13 11 11 12 11 11 11 11 11
1 1 1 1 1 1 -0 -0 -0 0 1 2 4 11 9 9 6 5 7 7 8 8 9 9 11 13 14 14 17 16 16 16 15 13 13 13 13 12 12 12 11 11 11 11 11
1 1 1 1 1 1 2 5 9 10 7 10 11 12 9 7 6 7 7 8 9 9 12 12 13 14 13 13 15 15 16 16 14 13 13 13 14 12 11 13 12 11 11 11 11
0 0 0 1 1 1 3 7 9 7 10 7 7 7 6 6 8 7 7 9 10 13 12 13 15 12 12 13 13 15 16 15 14 13 13 14 14 12 12 12 11 10 10 10 10
1 1 1 1 1 2 4 5 3 5 10 8 7 8 8 7 9 8 7 10 12 13 13 14 13 12 12 14 14 15 15 16 14 14 14 15 16 14 13 12 11 11 10 9 10
3 2 1 1 3 3 4 2 3 6 12 10 9 7 8 8 10 7 7 9 12 12 13 14 12 12 13 14 13 16 13 14 14 15 18 15 19 15 14 13 12 11 11 11 10
3 3 3 1 3 4 3 2 3 4 19 9 9 6 8 10 10 10 8 9 12 12 12 14 13 13 14 13 12 14 13 13 14 16 17 17 17 16 15 14 12 10 10 10 11
2 3 4 2 1 2 2 2 3 13 19 13 10 10 11 11 11 10 9 9 10 11 12 14 12 12 12 12 12 12 13 14 16 16 19 17 17 18 16 14 13 11 10 11 12
1 2 4 3 4 3 1 4 13 18 11 14 13 12 12 12 12 11 11 12 13 15 15 14 13 12 11 13 12 13 14 18 20 20 19 18 18 16 14 13 12 11 11 12 12
2 2 3 3 3 3 4 9 17 13 13 11 12 13 14 13 13 13 13 13 12 14 16 16 17 13 12 12 13 14 14 18 23 22 20 18 19 16 13 12 12 12 12 13 12
2 5 5 3 2 3 6 15 15 13 11 11 10 13 15 14 14 15 15 15 12 13 15 16 16 14 13 12 11 15 16 14 16 24 21 18 17 14 14 13 12 12 13 13 12
5 7 7 3 1 4 9 13 12 9 9 10 14 12 15 14 14 15 16 14 14 12 13 14 17 15 14 12 13 14 13 17 18 22 24 19 18 17 14 13 12 13 12 12 12
5 9 6 3 3 7 13 12 10 8 8 11 12 13 13 13 12 15 15 14 13 13 11 14 15 17 15 15 15 15 16 16 16 18 21 22 16 15 13 13 13 12 12 12 13
7 12 5 1 9 11 12 11 8 9 7 9 9 11 12 11 12 13 14 12 11 12 14 13 15 19 17 15 15 16 16 15 18 20 19 19 16 14 14 14 13 13 13 13 13
9 10 5 2 12 13 11 10 9 9 9 10 10 9 9 12 14 11 13 10 10 11 12 11 14 20 17 17 16 16 15 14 15 17 19 19 17 14 15 14 13 13 13 12 13
7 12 10 8 8 10 12 12 11 9 8 8 10 9 10 12 10 12 12 10 9 10 8 8 13 15 17 16 15 17 16 14 14 16 17 16 14 13 15 14 13 12 13 12 13
7 11 10 13 12 11 9 10 11 11 8 8 10 10 11 13 12 12 11 10 9 9 9 10 15 13 13 14 15 15 15 15 15 14 16 14 14 12 12 12 10 9 12 13 13
8 10 8 12 10 12 11 12 11 10 10 11 11 10 10 12 11 15 11 11 11 10 11 10 15 13 15 12 14 14 13 14 14 13 13 13 14 10 9 12 12 10 11 12 13
5 5 8 10 12 12 12 12 12 11 9 8 9 10 10 9 8 7 8 9 9 10 11 12 14 15 17 14 14 17 14 13 12 13 13 15 12 10 10 10 10 9 10 12 12